Le nostre stazioni meteo in Italia

Pubblicità
Il mio iltempo24.it
Capo Frasca, Italia (16539): Temperatura & dewpoint: 15.04.2019 09:00:00 - 21.04.2019 09:00:00 (CEST)Capo Frasca, Italia (16539): velocità del vento: 15.04.2019 09:00:00 - 21.04.2019 09:00:00 (CEST)Capo Frasca, Italia (16539): direzione del vento: 15.04.2019 09:00:00 - 21.04.2019 09:00:00 (CEST)Capo Frasca, Italia (16539): reduced air pressure: 15.04.2019 09:00:00 - 21.04.2019 09:00:00 (CEST)Capo Frasca, Italia (16539): visibility: 15.04.2019 09:00:00 - 21.04.2019 09:00:00 (CEST)
Data & Tempo tt [°C] td [°C] ff [km/h] ff [kn] dd ppp [hPa] vv [km]
21.04.2019 09:00:00 - - - - - - -
21.04.2019 08:00:00 14,4 13,4 29 16 ESE 1010,9 20
21.04.2019 07:00:00 - - - - - - -
21.04.2019 06:00:00 - - - - - - -
21.04.2019 05:00:00 - - - - - - -
21.04.2019 04:00:00 - - - - - - -
21.04.2019 03:00:00 - - - - - - -
21.04.2019 02:00:00 - - - - - - -
21.04.2019 01:00:00 - - - - - - -
21.04.2019 00:00:00 - - - - - - -
20.04.2019 23:00:00 - - - - - - -
20.04.2019 22:00:00 - - - - - - -
20.04.2019 21:00:00 - - - - - - -
20.04.2019 20:00:00 15,8 10,6 42 23 SE 1014,6 20
20.04.2019 19:00:00 - - - - - - -
20.04.2019 18:00:00 - - - - - - -
20.04.2019 17:00:00 17,8 10,2 59 32 ESE 1012,4 20
20.04.2019 16:00:00 - - - - - - -
20.04.2019 15:00:00 - - - - - - -
20.04.2019 14:00:00 20,0 11,5 52 28 SE 1016,3 20
20.04.2019 13:00:00 - - - - - - -
20.04.2019 12:00:00 - - - - - - -
20.04.2019 11:00:00 16,4 11,8 44 24 ESE 1018,5 20
20.04.2019 10:00:00 - - - - - - -
20.04.2019 09:00:00 - - - - - - -
20.04.2019 08:00:00 14,0 12,5 37 20 ESE 1019,5 20
20.04.2019 07:00:00 - - - - - - -
20.04.2019 06:00:00 - - - - - - -
20.04.2019 05:00:00 - - - - - - -
20.04.2019 04:00:00 - - - - - - -
20.04.2019 03:00:00 - - - - - - -
20.04.2019 02:00:00 - - - - - - -
20.04.2019 01:00:00 - - - - - - -
20.04.2019 00:00:00 - - - - - - -
19.04.2019 23:00:00 - - - - - - -
19.04.2019 22:00:00 - - - - - - -
19.04.2019 21:00:00 - - - - - - -
19.04.2019 20:00:00 16,4 12,6 34 18 SE 1020,4 25
19.04.2019 19:00:00 - - - - - - -
19.04.2019 18:00:00 - - - - - - -
19.04.2019 17:00:00 20,2 12,7 46 25 SE 1020,0 20
19.04.2019 16:00:00 - - - - - - -
19.04.2019 15:00:00 - - - - - - -
19.04.2019 14:00:00 21,0 14,7 42 23 SE 1020,3 25
19.04.2019 13:00:00 - - - - - - -
19.04.2019 12:00:00 - - - - - - -
19.04.2019 11:00:00 19,0 15,9 42 23 SE 1020,2 20
19.04.2019 10:00:00 - - - - - - -
19.04.2019 09:00:00 - - - - - - -
19.04.2019 08:00:00 13,6 12,0 37 20 ESE 1019,3 20
19.04.2019 07:00:00 - - - - - - -
19.04.2019 06:00:00 - - - - - - -
19.04.2019 05:00:00 - - - - - - -
19.04.2019 04:00:00 - - - - - - -
19.04.2019 03:00:00 - - - - - - -
19.04.2019 02:00:00 - - - - - - -
19.04.2019 01:00:00 - - - - - - -
19.04.2019 00:00:00 - - - - - - -
18.04.2019 23:00:00 - - - - - - -
18.04.2019 22:00:00 - - - - - - -
18.04.2019 21:00:00 - - - - - - -
18.04.2019 20:00:00 15,4 14,1 35 19 ESE 1016,8 20
18.04.2019 19:00:00 - - - - - - -
18.04.2019 18:00:00 - - - - - - -
18.04.2019 17:00:00 20,0 15,4 29 16 ESE 1016,8 20
18.04.2019 16:00:00 - - - - - - -
18.04.2019 15:00:00 - - - - - - -
18.04.2019 14:00:00 20,4 14,5 31 17 SE 1017,2 20
18.04.2019 13:00:00 - - - - - - -
18.04.2019 12:00:00 - - - - - - -
18.04.2019 11:00:00 17,4 14,7 28 15 SE 1018,1 20
18.04.2019 10:00:00 - - - - - - -
18.04.2019 09:00:00 - - - - - - -
18.04.2019 08:00:00 11,0 9,8 26 14 SE 1018,2 20
18.04.2019 07:00:00 - - - - - - -
18.04.2019 06:00:00 - - - - - - -
18.04.2019 05:00:00 - - - - - - -
18.04.2019 04:00:00 - - - - - - -
18.04.2019 03:00:00 - - - - - - -
18.04.2019 02:00:00 - - - - - - -
18.04.2019 01:00:00 - - - - - - -
18.04.2019 00:00:00 - - - - - - -
17.04.2019 23:00:00 - - - - - - -
17.04.2019 22:00:00 - - - - - - -
17.04.2019 21:00:00 - - - - - - -
17.04.2019 20:00:00 15,2 14,6 9 5 O 1018,8 25
17.04.2019 19:00:00 - - - - - - -
17.04.2019 18:00:00 - - - - - - -
17.04.2019 17:00:00 16,4 15,3 11 6 ONO 1018,8 20
17.04.2019 16:00:00 - - - - - - -
17.04.2019 15:00:00 - - - - - - -
17.04.2019 14:00:00 16,0 15,2 15 8 O 1019,4 20
17.04.2019 13:00:00 - - - - - - -
17.04.2019 12:00:00 - - - - - - -
17.04.2019 11:00:00 15,4 12,5 4 2 E 1019,6 20
17.04.2019 10:00:00 - - - - - - -
17.04.2019 09:00:00 - - - - - - -
17.04.2019 08:00:00 10,4 9,3 4 2 ESE 1019,6 20
17.04.2019 07:00:00 - - - - - - -
17.04.2019 06:00:00 - - - - - - -
17.04.2019 05:00:00 - - - - - - -
17.04.2019 04:00:00 - - - - - - -
17.04.2019 03:00:00 - - - - - - -
17.04.2019 02:00:00 - - - - - - -
17.04.2019 01:00:00 - - - - - - -
17.04.2019 00:00:00 - - - - - - -
16.04.2019 23:00:00 - - - - - - -
16.04.2019 22:00:00 - - - - - - -
16.04.2019 21:00:00 - - - - - - -
16.04.2019 20:00:00 15,2 14,2 18 10 N 1019,2 20
16.04.2019 19:00:00 - - - - - - -
16.04.2019 18:00:00 - - - - - - -
16.04.2019 17:00:00 18,0 15,2 5 3 ENE 1018,2 20
16.04.2019 16:00:00 - - - - - - -
16.04.2019 15:00:00 - - - - - - -
16.04.2019 14:00:00 15,2 13,2 11 6 SE 1018,3 20
16.04.2019 13:00:00 - - - - - - -
16.04.2019 12:00:00 - - - - - - -
16.04.2019 11:00:00 15,6 12,7 18 10 SE 1018,4 20
16.04.2019 10:00:00 - - - - - - -
16.04.2019 09:00:00 - - - - - - -
16.04.2019 08:00:00 11,0 10,1 18 10 ESE 1012,5 20
16.04.2019 07:00:00 - - - - - - -
16.04.2019 06:00:00 - - - - - - -
16.04.2019 05:00:00 - - - - - - -
16.04.2019 04:00:00 - - - - - - -
16.04.2019 03:00:00 - - - - - - -
16.04.2019 02:00:00 - - - - - - -
16.04.2019 01:00:00 - - - - - - -
16.04.2019 00:00:00 - - - - - - -
15.04.2019 23:00:00 - - - - - - -
15.04.2019 22:00:00 - - - - - - -
15.04.2019 21:00:00 - - - - - - -
15.04.2019 20:00:00 14,8 14,2 8 4 ONO 1017,4 25
15.04.2019 19:00:00 - - - - - - -
15.04.2019 18:00:00 - - - - - - -
15.04.2019 17:00:00 15,2 13,9 16 9 NO 1017,0 20
15.04.2019 16:00:00 - - - - - - -
15.04.2019 15:00:00 - - - - - - -
15.04.2019 14:00:00 15,4 13,1 16 9 NO 1017,4 20
15.04.2019 13:00:00 - - - - - - -
15.04.2019 12:00:00 - - - - - - -
15.04.2019 11:00:00 14,8 11,4 11 6 N 1017,4 25
15.04.2019 10:00:00 - - - - - - -
15.04.2019 09:00:00 - - - - - - -

tt = Temperatura
td = dewpoint
ff = velocità del vento
dd = direzione del vento
ppp = reduced air pressure
vv = visibility

Stazioni seguenti

WeatherPro
AMSI
MeteoEarth